Probability
58 35 26 6 3 0 0 0 0 0 0 0 3 3 3 0 0 0 0 0 3 13 26 42 42 48 45 48 48 45 42 35 29 32 39 39 42 39 32 32 29 29 29 39 39 35 32 39 35
35 26 19 3 0 0 0 0 0 0 0 0 3 3 0 0 0 0 0 3 10 13 19 32 42 42 42 45 32 23 19 19 26 26 29 32 32 32 32 35 32 32 29 32 29 29 26 35 39
32 32 10 0 0 0 0 0 0 3 0 3 3 0 0 0 0 0 0 3 10 10 19 26 29 32 32 29 23 19 23 19 19 19 19 26 26 26 26 32 29 32 29 23 29 32 29 29 39
16 10 0 0 0 0 0 0 0 0 3 3 0 0 0 0 0 0 3 3 10 6 6 13 23 26 23 23 23 16 16 16 13 16 16 16 16 16 26 26 32 32 32 26 29 32 29 23 32
10 0 0 0 0 0 0 0 0 0 0 3 0 0 0 0 0 0 3 3 3 3 3 6 19 19 19 16 16 13 10 10 13 13 13 10 16 19 26 23 23 26 29 29 29 26 26 26 26
0 0 0 0 0 0 0 0 0 0 0 0 0 0 0 0 3 3 3 3 3 3 3 3 16 16 16 16 10 6 6 6 10 13 13 10 13 19 26 16 16 23 23 23 26 26 23 29 32
0 0 0 0 0 0 0 0 0 0 0 0 0 0 0 0 3 3 3 3 3 3 3 3 3 6 19 16 13 6 6 6 6 6 6 10 13 16 23 13 13 16 13 13 19 13 16 23 29
0 0 0 0 0 0 0 0 0 0 0 0 0 0 0 0 0 3 3 3 3 3 3 3 3 3 3 3 6 6 6 3 3 3 3 6 10 13 13 10 10 6 10 10 10 10 10 10 26
0 0 0 0 0 0 0 0 0 0 0 0 0 0 0 0 0 3 3 3 3 3 3 3 3 3 3 3 3 3 3 6 6 3 6 3 0 0 0 0 10 6 10 10 6 6 6 6 3
0 0 0 0 0 0 0 0 0 0 0 0 3 0 0 0 0 0 0 0 3 3 3 3 3 3 3 3 0 0 3 3 0 0 0 0 0 0 0 0 6 6 3 6 10 6 6 0 0
0 0 0 0 0 0 0 0 0 0 0 0 0 0 0 0 0 0 0 3 3 3 3 3 3 3 3 0 0 0 0 0 0 0 0 0 0 0 0 0 0 0 3 0 0 0 0 0 0
0 0 0 0 0 0 0 0 0 0 0 0 0 0 0 0 0 0 0 0 3 0 0 3 3 3 0 0 0 0 0 0 0 0 0 0 0 0 0 0 0 0 0 0 0 0 0 0 0
0 0 0 0 0 0 0 0 0 0 0 3 3 3 0 0 0 0 0 0 0 0 0 3 3 0 0 0 0 0 0 0 0 0 0 0 0 0 0 0 0 0 0 0 0 0 0 0 0
0 0 0 0 0 0 0 0 3 0 0 0 3 3 3 0 0 0 0 0 0 0 0 0 0 0 0 0 0 0 0 0 0 0 0 0 0 0 0 0 0 0 0 0 0 0 0 0 0
0 0 0 0 0 0 0 0 0 0 0 0 0 3 3 0 0 0 0 0 0 0 0 0 0 0 0 0 0 0 0 0 0 0 0 0 0 0 0 0 0 0 0 0 0 0 0 0 0
0 0 0 0 0 0 0 0 0 0 3 0 0 0 3 0 0 0 0 0 0 0 0 0 0 0 0 0 0 0 0 0 0 0 0 0 0 0 0 0 0 0 0 0 0 0 0 0 0
0 0 0 0 0 0 0 0 0 0 0 0 0 0 3 0 0 0 0 0 0 0 0 0 0 0 0 0 0 0 0 0 0 0 0 0 0 0 0 0 0 0 0 0 0 0 0 0 0
0 0 0 0 0 0 0 0 0 0 0 0 0 0 0 3 0 0 0 0 0 0 0 0 0 0 0 0 0 0 0 0 0 0 0 0 0 0 0 0 0 0 0 0 0 0 0 0 0
0 0 0 0 0 0 0 0 0 0 0 0 0 0 0 0 0 0 0 0 0 0 0 0 0 0 0 0 0 0 0 0 0 0 0 0 0 0 0 0 0 0 0 0 0 0 0 0 0
0 0 0 0 0 0 0 0 0 0 0 0 0 0 0 0 0 0 0 0 0 0 0 0 0 0 0 0 0 0 0 0 0 0 0 0 0 0 0 0 0 0 0 0 0 0 0 0 0
0 0 0 0 0 0 0 0 0 0 0 0 0 0 0 0 0 0 0 0 0 0 0 0 0 0 0 0 0 0 0 0 0 0 0 0 0 0 0 0 0 0 0 0 0 0 0 0 0
0 0 0 0 0 0 0 0 0 0 0 0 0 0 0 0 3 0 0 0 0 0 0 0 0 0 0 0 0 0 0 0 0 0 0 0 0 0 0 0 0 0 0 0 0 0 0 0 0
0 0 0 0 0 0 0 0 0 0 0 0 0 0 0 0 3 0 0 0 0 0 0 0 0 0 0 0 0 0 0 0 0 0 0 0 0 0 0 0 0 0 0 0 0 0 0 0 0
0 0 0 0 0 0 0 0 0 0 0 0 0 0 0 0 0 0 0 0 0 0 0 0 0 0 0 0 0 0 0 0 0 0 0 0 0 0 0 0 0 0 0 0 0 0 0 0 0
0 0 0 0 0 0 0 0 0 0 0 0 0 0 0 0 0 0 0 0 0 0 0 0 0 0 0 0 0 0 0 0 0 0 0 0 0 0 0 0 0 0 0 0 0 0 0 0 0
0 0 0 0 0 0 0 0 0 0 0 0 0 0 0 0 0 0 0 0 0 0 0 0 0 0 0 0 0 0 0 0 0 0 0 0 0 0 0 0 0 0 0 0 0 0 0 0 0
0 0 0 0 0 0 0 0 0 0 0 0 0 0 0 0 0 0 0 0 0 0 0 0 0 0 0 0 0 0 0 0 0 0 0 0 0 0 0 0 0 0 0 0 0 0 0 0 0
0 0 0 0 0 0 0 0 0 0 0 0 0 0 0 0 0 0 0 0 0 0 0 0 0 0 0 0 0 0 0 0 0 0 0 0 0 0 0 0 0 0 0 0 0 0 0 0 0
0 0 0 0 0 0 0 0 0 0 0 0 0 0 0 0 0 0 0 0 0 0 0 0 0 0 0 0 0 0 0 0 0 0 0 0 0 0 0 0 0 0 0 0 0 0 0 0 0
0 0 0 0 0 0 0 0 0 0 0 0 0 0 0 0 0 0 0 0 0 0 0 0 0 0 0 0 0 0 0 0 0 0 0 0 0 0 0 0 0 0 0 0 0 0 0 0 0
Height
5889 5890 5890 5891 5892 5891 5891 5891 5890 5890 5890 5889 5889 5889 5889 5890 5891 5893 5890 5888 5888 5888 5887 5887 5887 5886 5886 5885 5885 5884 5884 5883 5883 5882 5881 5880 5880 5879 5879 5878 5877 5877 5876 5876 5876 5875 5875 5875 5875
5888 5889 5890 5890 5890 5890 5890 5890 5889 5889 5889 5889 5888 5888 5888 5888 5889 5889 5888 5888 5888 5887 5887 5886 5886 5886 5885 5885 5884 5884 5883 5883 5882 5881 5881 5880 5879 5878 5878 5877 5877 5876 5876 5875 5875 5874 5874 5874 5874
5887 5888 5889 5889 5889 5889 5889 5888 5888 5887 5888 5887 5887 5887 5888 5887 5887 5887 5887 5887 5887 5886 5886 5886 5885 5885 5885 5884 5884 5883 5883 5882 5881 5880 5880 5879 5878 5878 5877 5876 5876 5875 5875 5874 5874 5874 5873 5873 5873
5886 5887 5888 5888 5887 5887 5887 5886 5886 5886 5886 5886 5886 5886 5886 5886 5886 5886 5886 5885 5885 5885 5885 5885 5884 5884 5884 5883 5883 5882 5882 5881 5880 5880 5879 5878 5877 5877 5876 5875 5875 5874 5874 5873 5873 5872 5872 5872 5871
5884 5885 5886 5886 5886 5886 5885 5885 5885 5885 5885 5885 5885 5884 5884 5884 5884 5884 5884 5884 5884 5884 5884 5884 5883 5883 5883 5882 5882 5882 5881 5880 5879 5879 5878 5877 5876 5875 5875 5874 5874 5873 5873 5872 5872 5871 5871 5870 5870
5883 5883 5884 5883 5884 5884 5883 5883 5883 5883 5883 5883 5883 5883 5883 5883 5883 5883 5882 5882 5882 5882 5882 5882 5882 5882 5881 5881 5881 5880 5880 5879 5878 5877 5877 5876 5875 5874 5873 5873 5872 5872 5871 5871 5870 5870 5869 5869 5868
5881 5881 5881 5881 5882 5882 5882 5881 5881 5881 5881 5881 5881 5882 5881 5882 5881 5881 5881 5880 5881 5881 5881 5881 5881 5880 5880 5880 5879 5879 5878 5878 5877 5876 5875 5874 5874 5873 5872 5871 5871 5870 5870 5870 5869 5869 5868 5867 5867
5879 5880 5879 5879 5880 5880 5880 5879 5879 5879 5879 5879 5879 5880 5880 5880 5879 5879 5879 5879 5879 5879 5879 5879 5879 5879 5878 5878 5878 5877 5877 5876 5875 5875 5874 5873 5872 5871 5871 5870 5869 5869 5868 5868 5868 5867 5866 5866 5865
5877 5878 5877 5877 5878 5878 5877 5877 5877 5877 5877 5877 5877 5877 5877 5877 5877 5877 5877 5877 5877 5877 5877 5877 5877 5877 5876 5876 5876 5876 5875 5875 5874 5873 5872 5871 5871 5870 5869 5868 5867 5867 5867 5866 5866 5865 5865 5864 5864
5876 5876 5875 5876 5876 5876 5876 5875 5875 5875 5875 5875 5875 5875 5875 5875 5875 5875 5875 5876 5876 5876 5876 5875 5875 5875 5875 5875 5874 5874 5874 5873 5872 5872 5871 5870 5869 5869 5868 5867 5866 5866 5865 5865 5864 5864 5863 5863 5862
5874 5874 5874 5874 5874 5874 5873 5873 5873 5873 5873 5873 5873 5873 5873 5873 5873 5873 5873 5873 5874 5874 5874 5873 5873 5873 5873 5873 5872 5872 5872 5871 5871 5870 5869 5868 5868 5867 5866 5866 5865 5864 5864 5863 5863 5862 5862 5862 5861
5873 5872 5872 5872 5872 5872 5871 5871 5871 5871 5871 5871 5871 5871 5871 5871 5871 5871 5871 5871 5871 5871 5871 5871 5871 5871 5871 5871 5870 5870 5870 5869 5869 5868 5868 5867 5867 5866 5865 5865 5864 5863 5862 5862 5862 5861 5861 5860 5860
5871 5871 5871 5870 5870 5870 5869 5869 5869 5868 5868 5868 5868 5868 5869 5869 5869 5869 5868 5868 5868 5869 5869 5869 5869 5869 5869 5869 5868 5868 5868 5867 5867 5867 5867 5866 5866 5865 5864 5863 5863 5862 5861 5861 5860 5860 5860 5859 5859
5870 5869 5869 5869 5868 5868 5868 5867 5867 5866 5866 5866 5866 5866 5866 5866 5867 5867 5866 5866 5866 5866 5867 5867 5867 5867 5867 5866 5866 5866 5866 5866 5866 5865 5865 5865 5864 5863 5863 5862 5862 5861 5860 5860 5859 5859 5859 5858 5858
5869 5869 5868 5867 5867 5866 5866 5866 5865 5864 5864 5864 5864 5864 5864 5864 5865 5864 5864 5864 5864 5865 5865 5865 5865 5865 5864 5864 5864 5864 5864 5864 5864 5864 5863 5863 5863 5862 5862 5861 5860 5860 5859 5859 5858 5858 5858 5857 5857
5868 5868 5867 5866 5865 5865 5866 5865 5864 5863 5863 5862 5862 5862 5862 5862 5862 5862 5862 5862 5862 5862 5863 5863 5863 5863 5862 5862 5862 5862 5862 5862 5862 5862 5862 5862 5861 5861 5860 5860 5859 5859 5858 5858 5858 5857 5857 5857 5857
5867 5866 5866 5865 5864 5864 5864 5863 5862 5861 5861 5860 5860 5860 5859 5860 5860 5860 5860 5860 5860 5860 5860 5861 5861 5861 5861 5861 5861 5861 5861 5861 5861 5861 5861 5861 5860 5859 5859 5859 5858 5858 5858 5857 5857 5857 5857 5857 5856
5866 5865 5864 5864 5863 5863 5862 5862 5861 5860 5859 5859 5858 5858 5857 5858 5858 5858 5859 5859 5858 5858 5859 5859 5859 5859 5859 5859 5859 5859 5859 5859 5859 5859 5860 5859 5859 5859 5858 5858 5857 5857 5857 5857 5857 5856 5856 5856 5856
5864 5864 5863 5863 5862 5862 5861 5860 5860 5859 5857 5856 5856 5856 5855 5856 5856 5856 5857 5857 5857 5857 5857 5858 5858 5858 5857 5858 5858 5858 5858 5858 5858 5858 5858 5858 5858 5858 5857 5857 5857 5857 5857 5856 5856 5856 5856 5855 5855
5863 5863 5862 5862 5861 5860 5860 5859 5858 5857 5856 5855 5854 5854 5854 5854 5854 5855 5855 5855 5855 5856 5856 5856 5856 5856 5856 5856 5857 5857 5857 5857 5857 5857 5857 5857 5857 5857 5857 5856 5856 5856 5856 5856 5855 5855 5855 5855 5855
5862 5861 5861 5860 5860 5859 5859 5858 5857 5856 5855 5854 5853 5852 5852 5852 5852 5852 5853 5853 5854 5854 5854 5854 5855 5855 5855 5855 5856 5856 5856 5856 5856 5856 5856 5856 5856 5856 5856 5856 5855 5855 5855 5855 5855 5855 5855 5854 5854
5861 5860 5859 5859 5859 5858 5858 5857 5856 5855 5854 5853 5852 5851 5851 5850 5850 5850 5851 5851 5852 5852 5852 5853 5853 5853 5854 5854 5854 5855 5855 5855 5855 5855 5855 5855 5855 5855 5855 5855 5855 5855 5855 5855 5854 5854 5854 5854 5853
5859 5858 5858 5858 5857 5857 5856 5855 5855 5853 5853 5852 5851 5850 5849 5849 5849 5849 5850 5850 5851 5851 5851 5851 5852 5852 5852 5853 5853 5853 5854 5854 5854 5854 5854 5854 5855 5854 5854 5854 5854 5854 5854 5854 5854 5854 5853 5853 5853
5857 5857 5857 5856 5856 5856 5855 5854 5853 5852 5851 5851 5850 5849 5848 5848 5848 5848 5848 5849 5849 5849 5849 5850 5850 5850 5851 5851 5851 5852 5852 5852 5852 5853 5853 5853 5854 5854 5854 5854 5853 5853 5853 5853 5853 5852 5852 5852 5852
5856 5856 5856 5855 5854 5854 5853 5852 5852 5851 5850 5849 5849 5848 5847 5847 5847 5847 5847 5847 5847 5848 5848 5848 5848 5848 5849 5849 5850 5850 5850 5851 5851 5852 5852 5852 5852 5852 5853 5853 5852 5852 5852 5852 5852 5851 5851 5851 5850
5854 5854 5854 5854 5853 5852 5851 5850 5851 5849 5848 5848 5847 5847 5846 5846 5846 5845 5845 5846 5846 5846 5846 5846 5846 5847 5847 5847 5848 5848 5849 5849 5850 5850 5851 5851 5852 5851 5852 5851 5851 5851 5851 5851 5850 5850 5849 5849 5849
5851 5851 5852 5851 5850 5850 5849 5849 5849 5848 5847 5847 5846 5846 5845 5844 5844 5843 5843 5844 5844 5844 5844 5845 5845 5845 5845 5845 5846 5847 5847 5848 5849 5849 5850 5850 5850 5850 5850 5850 5850 5850 5849 5849 5849 5849 5848 5847 5847
5849 5849 5849 5849 5848 5848 5847 5847 5847 5846 5846 5845 5845 5844 5844 5843 5842 5842 5842 5842 5842 5842 5843 5843 5843 5843 5843 5844 5844 5845 5846 5847 5847 5848 5848 5848 5849 5849 5849 5849 5849 5848 5848 5848 5847 5847 5846 5846 5845
5847 5847 5846 5846 5846 5846 5845 5847 5845 5844 5844 5843 5843 5842 5842 5841 5841 5840 5840 5840 5840 5840 5841 5841 5841 5841 5842 5842 5843 5844 5844 5845 5845 5846 5846 5847 5847 5847 5847 5847 5847 5847 5846 5846 5846 5845 5844 5844 5843
5843 5843 5844 5844 5844 5843 5843 5846 5843 5842 5842 5841 5841 5840 5840 5839 5839 5839 5838 5838 5838 5838 5839 5839 5840 5840 5840 5841 5841 5842 5842 5843 5844 5844 5845 5845 5845 5845 5845 5845 5845 5845 5844 5844 5843 5843 5842 5842 5841
Wind_Speed
4 4 4 3 4 4 3 3 2 2 2 2 2 2 2 2 3 4 4 4 4 3 3 3 3 3 3 3 4 4 4 4 4 4 4 4 5 5 4 4 4 4 4 4 4 4 5 6 6
5 4 4 4 5 5 5 4 4 3 3 4 4 4 4 4 5 5 5 5 4 4 4 4 4 3 4 4 4 4 4 4 4 4 5 5 5 4 4 4 4 4 4 4 4 4 5 5 6
6 6 6 6 6 6 6 5 5 5 5 5 5 5 5 5 6 5 6 6 5 4 4 4 4 4 4 4 4 4 5 5 5 5 5 6 5 5 5 4 5 5 5 5 5 5 5 5 5
7 7 7 7 7 7 6 6 6 6 6 6 6 5 5 6 6 6 6 6 5 5 5 5 5 5 5 5 5 5 5 5 5 5 5 5 5 5 5 5 5 6 6 6 5 5 5 6 6
8 8 8 8 8 8 7 6 6 6 6 6 6 6 6 6 6 7 7 6 6 6 6 6 6 6 6 6 6 6 5 5 5 5 5 5 5 6 6 6 6 6 6 6 6 6 6 6 6
8 8 8 8 8 8 8 7 7 7 7 7 7 7 7 6 6 7 7 7 7 6 6 6 6 6 6 6 6 6 6 6 6 6 6 6 6 6 6 6 6 6 6 6 6 6 6 6 6
8 8 9 9 8 8 8 8 8 6 7 7 7 8 8 7 7 7 7 7 7 7 7 6 6 6 6 6 6 6 6 7 6 6 7 6 6 6 6 7 7 7 6 6 6 6 6 6 6
8 9 9 9 9 8 9 9 8 8 8 8 8 9 8 8 8 8 7 7 7 7 7 7 7 7 7 6 6 7 7 7 7 7 6 6 6 5 6 6 6 6 6 6 6 6 6 6 6
8 9 9 9 8 8 9 9 8 8 8 8 8 8 8 8 9 8 7 7 7 7 8 8 7 7 7 7 7 7 7 7 6 6 6 6 6 6 6 6 6 7 6 6 6 6 6 5 5
7 7 8 8 8 9 9 9 9 9 9 8 8 8 8 8 8 8 8 8 8 8 8 8 7 7 7 8 8 7 7 7 7 6 6 6 6 6 6 6 6 6 6 6 6 6 5 5 6
7 7 7 7 8 9 8 8 9 9 9 9 8 8 8 8 8 8 9 9 8 8 8 8 8 8 8 8 8 8 8 7 7 6 6 6 6 5 5 6 6 5 5 5 5 5 5 5 6
6 7 7 7 7 8 8 9 10 10 9 9 8 8 8 8 8 8 9 10 9 8 8 8 8 8 8 8 8 8 7 7 6 5 5 5 5 5 5 5 5 4 4 5 4 4 4 5 5
5 6 6 6 6 7 8 8 9 9 9 8 8 8 8 8 8 8 8 9 8 8 7 7 8 7 8 8 8 7 7 6 6 5 5 6 5 5 4 5 4 4 4 4 3 3 4 4 4
5 6 6 6 6 6 7 7 8 7 7 8 7 8 8 8 8 8 7 7 7 7 6 7 7 7 7 7 8 7 7 6 6 5 5 5 5 4 4 4 3 3 3 3 3 3 3 3 3
5 6 5 5 5 6 7 6 5 6 7 8 7 7 7 7 7 7 7 7 6 6 5 7 7 7 7 7 7 7 6 6 6 6 6 5 4 3 3 3 3 3 3 3 2 2 2 2 2
5 5 5 5 5 5 6 5 6 7 8 8 7 8 7 7 7 7 7 7 6 6 6 6 7 6 6 7 7 7 7 5 6 5 5 4 4 3 3 3 2 2 2 2 2 2 1 2 2
5 5 5 5 5 5 6 6 6 6 7 7 7 7 7 7 7 7 7 7 6 5 5 6 5 6 6 7 7 6 6 5 5 5 4 4 4 3 3 2 2 1 1 1 1 1 1 1 1
5 5 5 5 5 5 5 6 6 7 7 7 7 6 6 6 6 7 7 6 6 6 5 5 6 6 6 6 6 6 6 4 4 4 4 3 4 3 2 2 1 1 1 0 1 1 2 2 2
6 5 4 4 5 5 5 6 6 6 7 7 6 6 5 5 6 7 7 7 6 6 6 6 6 6 6 5 5 5 5 4 4 3 3 3 3 2 2 1 1 1 1 0 1 1 2 3 2
5 4 4 4 5 5 5 6 6 6 6 5 4 4 4 5 6 7 7 6 6 6 5 6 6 5 5 5 5 5 5 4 3 4 3 3 3 2 2 2 2 2 2 1 1 1 1 2 2
5 5 5 5 4 5 5 5 5 4 4 4 4 4 4 4 5 7 7 6 6 6 5 6 6 6 6 6 5 5 4 4 4 4 3 3 3 2 2 2 1 2 1 1 1 1 2 2 2
6 6 5 5 5 6 6 6 4 4 4 4 4 4 4 4 5 6 6 6 6 6 6 6 6 6 6 6 6 5 4 3 4 4 3 3 3 3 2 2 2 2 2 2 1 2 2 2 2
7 7 6 6 6 7 6 6 4 4 4 4 4 4 3 4 5 5 5 6 6 6 6 5 6 6 6 7 6 6 5 4 4 4 4 3 3 3 2 2 2 2 2 2 3 3 3 3 3
7 8 8 8 7 6 5 5 4 4 4 4 5 4 3 3 4 5 5 5 6 6 6 6 6 6 7 7 7 7 6 6 6 6 4 4 4 3 2 2 3 2 3 3 4 4 4 4 4
7 8 8 8 7 6 6 6 6 5 4 4 4 4 4 4 4 5 5 4 5 6 6 6 6 6 6 7 7 7 6 6 7 6 5 5 5 4 3 3 3 3 3 4 4 4 5 5 6
8 8 8 8 8 7 7 6 6 5 5 5 5 4 3 4 5 5 5 5 5 5 6 6 6 6 6 7 8 7 7 6 6 6 6 6 5 5 4 3 3 4 4 4 4 4 5 6 6
8 8 8 8 8 8 8 7 7 5 5 5 5 5 4 4 4 5 5 6 5 5 5 6 6 6 6 7 7 7 7 7 6 7 7 6 6 6 5 4 5 5 4 5 5 6 6 6 6
10 9 8 9 9 9 9 8 7 6 6 6 6 6 5 4 4 4 5 6 6 6 6 6 6 6 6 7 7 7 7 7 7 7 7 7 7 7 7 6 6 6 6 7 6 6 6 7 7
11 10 10 9 9 10 10 9 8 7 7 6 6 5 5 5 5 5 5 5 6 6 6 6 7 7 7 8 7 8 8 8 8 7 7 7 7 7 7 7 8 8 8 7 7 7 7 7 7
12 12 11 11 10 10 10 9 8 7 7 7 6 6 5 5 5 5 5 5 6 7 7 7 7 7 7 8 8 8 9 9 8 7 7 7 7 7 8 8 8 8 9 9 9 9 9 8 8
Wind_Direction
210 213 217 221 232 230 229 239 248 261 240 262 278 288 286 273 263 265 275 277 278 287 302 306 303 300 300 300 307 309 310 310 310 307 302 299 301 298 296 298 295 298 293 277 271 265 259 254 246
227 230 234 236 240 244 247 250 252 262 258 267 282 287 280 272 267 265 270 273 279 286 292 294 290 296 298 295 298 300 308 312 309 305 300 300 301 299 297 298 297 295 287 277 266 269 268 261 250
241 242 244 246 250 254 251 251 256 271 274 266 272 280 272 269 267 266 267 269 275 282 287 283 280 292 299 290 291 293 302 307 305 302 298 297 297 294 291 289 292 290 286 285 277 271 273 268 256
243 246 248 250 253 258 261 258 260 264 269 270 272 277 276 269 264 265 264 258 264 270 276 278 275 283 291 294 296 293 295 301 299 296 295 292 290 289 287 283 287 286 281 279 275 275 276 271 261
247 249 248 249 251 255 260 261 260 263 267 271 271 276 278 268 262 261 260 255 256 266 273 277 280 280 281 286 288 288 289 293 295 292 292 293 288 284 284 284 283 282 280 279 273 273 277 272 263
249 249 253 255 255 257 260 260 267 267 266 268 268 271 274 269 268 264 264 260 263 269 270 274 281 279 275 278 289 283 283 287 288 289 292 294 291 288 287 284 283 281 283 285 279 273 276 274 269
256 252 254 258 256 255 260 267 266 268 273 270 271 270 270 269 268 266 264 267 265 264 267 269 273 274 274 279 286 284 286 286 287 289 293 295 292 288 287 282 280 276 279 280 280 278 279 274 271
261 256 258 257 254 256 260 265 264 262 267 272 273 271 268 267 268 266 257 260 259 261 267 269 269 270 269 275 280 282 284 286 289 289 288 285 288 287 293 288 278 275 275 277 279 277 275 272 272
257 257 259 255 255 261 266 267 264 266 270 273 278 278 273 268 265 264 258 258 257 261 266 274 273 269 269 272 275 283 286 286 290 291 285 284 285 290 297 292 286 278 275 277 277 274 270 267 270
261 263 259 259 260 266 268 266 267 266 267 272 278 279 278 273 265 264 266 262 258 262 263 268 269 267 271 271 269 276 278 281 285 287 289 290 291 293 298 296 291 283 275 274 275 272 267 264 266
269 270 266 262 266 269 268 273 273 270 272 273 276 279 278 274 269 267 270 268 264 262 266 264 259 263 267 269 270 274 270 275 280 287 296 293 290 294 299 296 293 288 277 274 273 268 266 268 265
277 273 270 267 272 272 267 272 277 275 274 273 271 271 273 271 271 272 273 269 262 261 266 262 258 263 264 267 273 273 271 273 276 283 287 293 291 291 297 298 300 290 279 272 272 270 266 266 265
281 281 278 272 276 275 277 275 277 276 273 272 270 269 270 273 271 272 275 262 256 256 261 261 260 266 267 271 273 274 269 271 272 268 274 283 288 289 296 306 302 288 282 274 270 272 273 273 270
285 289 287 283 283 285 283 280 280 279 280 276 274 271 268 274 277 274 269 265 257 254 259 258 256 263 269 270 267 267 270 273 269 265 274 280 283 284 289 299 297 287 286 281 269 266 267 268 270
291 295 296 298 296 291 285 281 288 281 285 283 282 282 273 271 273 275 267 265 262 254 261 260 260 265 265 260 259 259 264 265 262 261 267 267 270 271 287 294 288 290 292 274 253 249 253 257 270
288 286 298 299 298 300 294 292 290 288 287 282 280 275 271 267 264 268 266 266 265 263 261 260 268 265 255 253 255 261 257 258 257 258 262 258 262 272 284 285 283 288 293 280 249 239 234 256 261
288 286 290 292 292 292 296 299 296 295 293 285 280 271 263 264 262 262 263 264 262 270 261 254 261 265 259 249 254 263 257 256 249 248 258 261 263 276 286 278 267 289 299 294 244 236 238 239 243
287 292 296 293 289 289 295 302 299 297 291 291 286 277 265 262 255 255 259 262 260 262 260 256 264 263 263 258 257 257 256 251 245 247 249 258 262 269 266 268 270 281 295 265 230 245 254 246 251
290 289 296 307 303 298 294 301 307 309 301 298 295 282 270 262 257 250 249 250 248 251 255 259 261 266 265 254 254 261 258 254 244 239 246 253 262 257 251 283 277 244 235 231 270 265 266 256 254
293 289 294 303 309 308 306 306 311 315 316 307 291 280 264 256 251 245 242 236 237 246 252 255 258 259 252 245 254 261 257 248 237 229 230 246 255 242 234 241 244 229 220 223 288 292 278 266 257
297 295 294 299 310 312 313 307 312 326 326 312 294 283 268 252 245 247 245 233 232 241 255 251 252 253 248 246 250 254 249 243 236 221 228 233 226 228 231 251 224 217 210 221 263 277 293 291 284
285 288 286 296 304 309 313 313 313 326 333 321 311 294 282 261 248 246 236 231 229 240 251 254 254 250 242 238 243 246 241 236 228 219 233 220 214 226 247 248 239 234 235 248 258 276 291 296 295
277 277 281 286 293 302 311 312 317 315 323 321 315 305 293 269 240 231 233 238 241 242 245 253 250 245 243 243 244 241 237 233 228 227 232 218 217 224 235 245 252 249 246 259 267 278 285 289 287
274 274 279 283 289 297 305 313 325 315 314 314 306 300 293 272 260 244 242 242 239 241 249 254 251 250 247 244 243 236 233 232 232 229 220 215 221 233 244 258 267 264 260 264 272 278 279 284 286
275 274 272 276 279 289 294 303 316 311 306 310 307 298 280 271 271 260 257 249 242 250 257 259 255 250 243 242 239 237 230 227 223 221 219 222 232 242 246 249 255 269 269 268 279 280 282 283 287
273 276 275 285 292 288 288 293 309 312 309 310 305 302 286 278 272 268 261 254 251 252 256 252 252 249 243 239 233 230 221 216 218 219 223 231 240 244 251 251 254 265 272 278 284 287 287 285 285
265 270 277 282 288 287 284 288 300 301 300 297 298 298 288 284 278 274 263 253 254 253 249 247 250 251 243 233 223 226 220 218 224 224 223 232 241 248 252 261 266 260 268 277 284 287 288 288 287
261 264 272 277 283 284 283 287 296 295 297 293 294 293 284 283 286 281 262 257 254 253 250 250 251 251 242 226 218 220 220 220 225 224 224 235 241 244 250 260 266 266 275 281 284 288 292 290 289
261 265 272 276 281 284 285 285 290 292 295 293 292 289 282 283 281 280 272 262 256 257 253 250 252 247 238 227 224 225 225 227 232 230 230 233 242 247 255 263 267 270 276 283 285 287 287 287 290
259 264 269 273 279 282 286 281 282 285 287 292 295 298 288 284 283 279 276 268 260 256 251 251 252 246 239 232 231 229 229 228 227 231 231 238 248 256 261 267 268 273 276 281 285 283 283 284 288